[Iaude] MPEC E37: 2024 EV [a=2.35,e=0.63,i=2.0,H=26.5]

mpec at cfa.harvard.edu mpec at cfa.harvard.edu
Mon Mar 4 08:57:56 EST 2024


M.P.E.C. 2024-E37                                 Issued 2024 March 4, 13:56 UT

     The Minor Planet Electronic Circulars contain information on unusual
         minor planets, routine data on comets and natural satellites,
         and occasional editorial announcements.  They are published
    on behalf of Division F of the International Astronomical Union by the
          Minor Planet Center, Smithsonian Astrophysical Observatory,
                          Cambridge, MA 02138, U.S.A.
			  
             Prepared using the Tamkin Foundation Computer Network

                              MPC at CFA.HARVARD.EDU
            URL https://www.minorplanetcenter.net/    ISSN 1523-6714

                                    2024 EV                                     


Observations:
     K24E00V* C2024 03 02.46962011 02 21.316-00 01 00.96         21.81wXEE037F51
     K24E00V  C2024 03 02.48165911 02 23.221-00 01 14.87         21.72wXEE037F51
     K24E00V  C2024 03 02.49369311 02 25.163-00 01 29.04         21.40wXEE037F51
     K24E00V  C2024 03 02.59365611 02 41.667-00 03 25.46         21.53GVEE037F52
     K24E00V  C2024 03 02.59430411 02 41.758-00 03 26.13         21.20GVEE037F52
     K24E00V KC2024 03 03.42689811 05 16.724-00 18 21.10         22.18GVEE037I52
     K24E00V KC2024 03 03.43164011 05 17.401-00 18 26.57         22.20GVEE037I52
     K24E00V KC2024 03 03.43638311 05 17.948-00 18 29.92         21.46GVEE037I52
     K24E00V KC2024 03 04.39107311 07 47.493-00 32 26.29         21.3 GVEE037H01
     K24E00V KC2024 03 04.40582711 07 49.179-00 32 38.00         21.0 GVEE037H01
     K24E00V KC2024 03 04.41376311 07 50.079-00 32 44.38         21.5 GVEE037H01
     K24E00V KC2024 03 04.42346611 07 51.208-00 32 51.88         21.8 GVEE037H01

Observer details:
F51 Pan-STARRS 1, Haleakala.  Observers J. Herman, T. Lowe, P. Minguez, A.
    Schultz, I. Smith.  Measurers K. Chambers, T. de Boer, J. Fairlamb, H.
    Gao, M. Huber, C.-C. Lin, E. Magnier, Y. Ramanjooloo, R. Wainscoat, R.
    Weryk.  1.8-m Ritchey-Chretien + CCD.
F52 Pan-STARRS 2, Haleakala.  Observers J. Herman, T. Lowe, P. Minguez, A.
    Schultz, I. Smith.  Measurers K. Chambers, T. de Boer, J. Fairlamb, H.
    Gao, M. Huber, C.-C. Lin, E. Magnier, Y. Ramanjooloo, R. Wainscoat, R.
    Weryk.  1.8-m Ritchey-Chretien + CCD.
H01 Magdalena Ridge Observatory, Socorro.  Observers W. H. Ryan, E. V. Ryan.
    Measurer W. H. Ryan.  2.4-m f/8.9 Ritchey-Chretien + CCD.
I52 Steward Observatory, Mt. Lemmon Station.  Observers T. Beuden, J. K.
    Hogan.  Measurers T. Beuden, V. F. Carvajal, D. Fay, J. B. Fazekas, D. C.
    Fuls, A. R. Gibbs, A. D. Grauer, H. Groeller, J. K. Hogan, R. A. Kowalski,
    S. M. Larson, G. J. Leonard, D. Rankin, R. L. Seaman, F. C. Shelly, K. W.
    Wierzchos.  1.0-m prime focus + CCD.

Orbital elements:
2024 EV                                                  Earth MOID = 0.0003 AU
Epoch 2024 Mar. 31.0 TT = JDT 2460400.5                 MPC                     
M  19.79244              (2000.0)            P               Q                  
n   0.27339202     Peri.  132.30679     -0.22740936     -0.97364551             
a   2.3511418      Node   330.82444     +0.88267701     -0.19859236             
e   0.6320265      Incl.    2.03412     +0.41129828     -0.11214049             
P   3.61           H   26.59          G   0.15           U   9                  
Residuals in seconds of arc
240302 F51  0.1+  0.1-    240302 F52  0.3-  0.1-    240304 H01  0.0   0.1+
240302 F51  0.1-  0.2+    240303 I52  0.3+  0.6+    240304 H01  0.1+  0.0
240302 F51  0.1+  0.2+    240303 I52  0.4+  0.3-    240304 H01  0.1-  0.1-
240302 F52  0.0   0.2-    240303 I52  1.4-  0.9+    240304 H01  0.0   0.0

Ephemeris:
2024 EV                  a,e,i = 2.35, 0.63, 2                   q = 0.8652
Date    TT    R. A. (2000) Decl.     Delta      r    Elong.  Phase     V
2024 02 03    23 50 10.7 +04 39 51   0.1422  0.8937    46.5   126.8    27.5
...
2024 02 18    01 10 32.8 +12 13 52   0.02974 0.9704    52.6   126.0    24.2
...
2024 02 26    10 21 51.1 +04 00 54   0.03572 1.0254   174.2     5.6    19.9
...
2024 03 03    11 04 04.9 -00 10 13   0.08052 1.0712   172.7     6.8    21.8
2024 03 04    11 06 52.3 -00 26 07   0.08823 1.0792   172.9     6.6    22.0
2024 03 05    11 09 12.3 -00 39 09   0.09601 1.0872   173.1     6.3    22.2
...
2024 03 11    11 17 44.6 -01 22 21   0.1440  1.1368   174.5     4.8    23.1
...
2024 03 19    11 23 13.3 -01 40 45   0.2122  1.2060   171.8     6.7    24.1
...
2024 04 03    11 30 09.0 -01 50 46   0.3571  1.3409   160.0    14.8    25.8

A. U. Tomatic                (C) Copyright 2024 MPC           M.P.E.C. 2024-E37





More information about the Iaude mailing list